Location: downtown San Diego
(32.7310°N, 117.1990°W)
Time: 15:58:19
(UTC-07:00)

NOAA 11 - Pass Details

Date: 14 June 2018
Orbit: 832 x 850 km, 98.5° (Epoch: 20 June)

Event Time Altitude Azimuth Distance (km) Brightness Sun altitude
Exits shadow 21:05:39 - 168° (SSE) 2,525 6.2 -12.7°
Reaches altitude 10° 21:05:52 10° 168° (SSE) 2,441 6.1 -12.7°
Maximum altitude 21:11:17 84° 257° (WSW) 843 4.2 -13.6°
Drops below altitude 10° 21:16:44 10° 346° (NNW) 2,447 7.5 -14.5°
Sets 21:19:05 0° 347° (NNW) 3,383 8.3 -14.8°
